DW4604 Weather Reports


time (UTC)temp
C
wind
direction
speed
KPH
gust
KPH
rain 1hr
cm
rain 24hr
cm
rain mn
cm
humidity
%
barometer
mb
20260905073939 15 0 0.0 0.0 0.00 0.05 0.05 86 1015.2
20260905073439 15 0 0.0 0.0 0.00 0.05 0.05 87 1015.2
20260905072939 15 0 0.0 0.0 0.00 0.05 0.05 86 1015.3
20260905071440 15 0 0.0 0.0 0.00 0.05 0.05 89 1015.1
20260905070940 15 0 0.0 0.0 0.00 0.05 0.05 89 1015.1
20260905070440 15 0 0.0 0.0 0.00 0.05 0.05 89 1015.0
20260905065940 15 0 0.0 0.0 0.00 0.05 0.05 90 1014.8
20260905064940 15 0 0.0 0.0 0.00 0.05 0.05 90 1014.7
20260905064441 15 0 0.0 0.0 0.00 0.05 0.05 90 1014.7
20260905063939 15 0 0.0 0.0 0.00 0.05 0.05 90 1014.7
20260905062942 15 0 0.0 0.0 0.00 0.05 0.05 90 1014.6
20260905061942 14 0 0.0 0.0 0.00 0.05 0.05 91 1014.4
20260905060940 14 0 0.0 0.0 0.00 0.05 0.05 90 1014.3
20260905060440 14 0 0.0 0.0 0.00 0.05 0.05 90 1014.4
20260905055940 14 0 0.0 0.0 0.00 0.05 0.05 90 1014.3
20260905055440 14 0 0.0 0.0 0.00 0.05 0.05 90 1014.3
20260905054940 14 0 0.0 0.0 0.03 0.05 0.05 90 1014.2
20260905054440 14 0 0.0 0.0 0.03 0.05 0.05 91 1014.3
20260905053940 14 0 0.0 0.0 0.03 0.05 0.05 91 1013.9
20260905053441 14 0 0.0 0.0 0.03 0.05 0.05 91 1013.8
20260905052941 14 0 0.0 0.0 0.03 0.05 0.05 92 1013.8
20260905052440 14 0 0.0 0.0 0.03 0.05 0.05 92 1013.8
20260905051940 14 0 0.0 0.0 0.03 0.05 0.05 93 1013.8
20260905050440 14 0 0.0 0.0 0.03 0.05 0.05 93 1013.8
20260905045941 14 0 0.0 0.0 0.03 0.05 0.05 93 1013.7
20260905045440 15 0 0.0 0.0 0.00 0.05 0.05 93 1013.3
20260905044941 15 0 0.0 0.0 0.00 0.05 0.05 93 1013.1
20260905044441 15 0 0.0 0.0 0.00 0.05 0.05 93 1013.3
20260905043940 15 0 0.0 0.0 0.00 0.05 0.05 93 1013.3
20260905043441 15 0 0.0 0.0 0.00 0.05 0.05 93 1013.2
20260905042940 15 0 0.0 0.0 0.00 0.05 0.05 93 1013.1
20260905042441 15 0 0.0 0.0 0.00 0.05 0.05 93 1013.1
20260905041941 15 0 0.0 0.0 0.00 0.05 0.05 93 1013.0
20260905041440 15 0 0.0 0.0 0.00 0.05 0.05 92 1013.2
20260905040940 15 0 0.0 0.0 0.00 0.05 0.05 93 1013.1
20260905040440 15 0 0.0 0.0 0.00 0.05 0.05 93 1013.2
20260905035942 15 0 0.0 0.0 0.00 0.05 0.05 93 1012.9
20260905035441 15 0 0.0 0.0 0.00 0.05 0.05 93 1012.8
20260905034941 15 0 0.0 0.0 0.00 0.05 0.05 93 1012.8
20260905034441 15 0 0.0 0.0 0.00 0.05 0.05 93 1012.7
20260905033940 15 0 0.0 0.0 0.00 0.05 0.05 93 1012.5
20260905033441 15 0 0.0 0.0 0.00 0.05 0.05 93 1012.4
20260905032940 15 0 0.0 0.0 0.00 0.05 0.05 93 1012.4
20260905031441 15 0 0.0 0.0 0.00 0.05 0.05 93 1012.0
20260905030941 15 0 0.0 0.0 0.00 0.05 0.05 93 1012.2
20260905030441 15 0 0.0 0.0 0.00 0.05 0.05 93 1012.0
20260905025942 15 0 0.0 0.0 0.00 0.05 0.05 93 1011.7
20260905025440 15 0 0.0 0.0 0.00 0.05 0.05 93 1011.9
20260905024940 15 0 0.0 0.0 0.00 0.05 0.05 93 1011.9
20260905024440 15 0 0.0 0.0 0.00 0.05 0.05 93 1012.0
20260905023940 15 0 0.0 0.0 0.00 0.05 0.05 93 1012.1
20260905023440 15 0 0.0 0.0 0.00 0.05 0.05 93 1012.0
20260905022940 15 0 0.0 0.0 0.00 0.05 0.05 93 1012.2
20260905022441 15 0 0.0 0.0 0.00 0.05 0.05 93 1012.0
20260905021441 15 0 0.0 0.0 0.00 0.05 0.05 93 1012.4
20260905020441 15 0 0.0 0.0 0.00 0.05 0.05 93 1012.2
20260905015941 15 0 0.0 0.0 0.03 0.05 0.05 93 1012.2
20260905015440 15 0 0.0 0.0 0.03 0.05 0.05 93 1012.1
20260905014941 15 0 0.0 0.0 0.05 0.05 0.05 93 1012.2
20260905014441 15 0 0.0 0.0 0.05 0.05 0.05 92 1012.2
20260905013941 15 0 0.0 0.0 0.05 0.05 0.05 92 1011.8
20260905013441 15 0 0.0 0.0 0.05 0.05 0.05 92 1011.7
20260905012941 15 0 0.0 0.0 0.05 0.05 0.05 92 1011.5
20260905012441 15 0 0.0 0.0 0.05 0.05 0.05 91 1011.8
20260905011941 15 0 0.0 0.0 0.05 0.05 0.05 91 1011.7
20260905011441 16 0 0.0 0.0 0.05 0.05 0.05 90 1012.0
20260905010941 16 0 0.0 0.0 0.05 0.05 0.05 89 1011.8
20260905010441 16 0 0.0 0.0 0.05 0.05 0.05 88 1011.8
20260905005441 17 0 0.0 0.0 0.03 0.03 0.03 84 1011.8
20260905004942 17 0 0.0 0.0 0.00 0.00 0.00 81 1012.0
20260905004441 17 0 0.0 0.0 0.00 0.00 0.00 80 1011.4
20260905003941 17 0 0.0 0.0 0.00 0.00 0.00 79 1011.9
20260905003441 18 0 0.0 0.0 0.00 0.00 0.00 78 1011.8
20260905002941 18 0 0.0 0.0 0.00 0.00 0.00 78 1011.5
20260905002442 18 0 0.0 0.0 0.00 0.00 0.00 77 1011.1
20260905001941 18 0 0.0 0.0 0.00 0.00 0.00 77 1011.3
20260905001441 18 0 0.0 0.0 0.00 0.00 0.00 76 1011.5
20260905000941 18 0 0.0 0.0 0.00 0.00 0.00 75 1011.3
20260905000441 18 0 0.0 0.0 0.00 0.00 0.00 75 1011.3
20260904235441 18 0 0.0 0.0 0.00 0.00 0.00 74 1011.1
20260904234941 18 0 0.0 0.0 0.00 0.00 0.00 74 1011.0
20260904234441 18 0 0.0 0.0 0.00 0.00 0.00 73 1011.2
20260904233941 19 0 0.0 0.0 0.00 0.00 0.00 73 1011.3
20260904233442 19 0 0.0 0.0 0.00 0.00 0.00 73 1011.0
20260904232942 18 0 0.0 0.0 0.00 0.00 0.00 74 1011.1
20260904232442 18 0 0.0 0.0 0.00 0.00 0.00 75 1010.9
20260904231943 18 0 0.0 0.0 0.00 0.00 0.00 75 1010.8
20260904231442 19 0 0.0 0.0 0.00 0.00 0.00 74 1010.6
20260904230443 19 0 0.0 0.0 0.00 0.00 0.00 73 1010.6
20260904225941 19 0 0.0 0.0 0.00 0.00 0.00 73 1010.6
20260904225441 19 0 0.0 0.0 0.00 0.00 0.00 74 1010.5
20260904224941 19 0 0.0 0.0 0.00 0.00 0.00 74 1010.4
20260904224441 19 0 0.0 0.0 0.00 0.00 0.00 74 1010.3
20260904223941 19 0 0.0 0.0 0.00 0.00 0.00 74 1010.3
20260904223441 20 0 0.0 0.0 0.00 0.00 0.00 72 1010.3
20260904222943 20 0 0.0 0.0 0.00 0.00 0.00 71 1010.1
20260904222442 20 0 0.0 0.0 0.00 0.00 0.00 70 1009.8
20260904221941 20 0 0.0 0.0 0.00 0.00 0.00 70 1009.7
20260904221442 21 0 0.0 0.0 0.00 0.00 0.00 70 1009.8
20260904220942 21 0 0.0 0.0 0.00 0.00 0.00 72 1009.8
20260904220442 21 0 0.0 0.0 0.00 0.00 0.00 73 1009.6
20260904215945 22 0 0.0 0.0 0.00 0.00 0.00 74 1009.4
20260904215442 22 0 0.0 0.0 0.00 0.00 0.00 73 1009.2
20260904214443 22 0 0.0 0.0 0.00 0.00 0.00 71 1008.9
20260904213441 23 0 0.0 0.0 0.00 0.00 0.00 69 1008.8
20260904212941 23 0 0.0 0.0 0.00 0.00 0.00 68 1008.7
20260904212443 23 0 0.0 0.0 0.00 0.00 0.00 68 1007.5
20260904211942 23 0 0.0 0.0 0.00 0.00 0.00 68 1007.5
20260904210942 22 0 0.0 0.0 0.00 0.00 0.00 69 1007.4
20260904210442 22 0 0.0 0.0 0.00 0.00 0.00 70 1007.5
20260904205942 22 0 0.0 0.0 0.00 0.00 0.00 70 1007.6
20260904205442 22 0 0.0 0.0 0.00 0.00 0.00 72 1007.5
20260904204942 22 0 0.0 0.0 0.00 0.00 0.00 72 1007.6
20260904204442 22 0 0.0 0.0 0.00 0.00 0.00 72 1007.5
20260904203942 21 0 0.0 0.0 0.00 0.00 0.00 73 1007.5
20260904203442 21 0 0.0 0.0 0.00 0.00 0.00 73 1007.5
20260904202942 21 0 0.0 0.0 0.00 0.00 0.00 74 1007.5
20260904202443 21 0 0.0 0.0 0.00 0.00 0.00 74 1007.5
20260904201942 21 0 0.0 0.0 0.00 0.00 0.00 74 1007.6
20260904201442 21 0 0.0 0.0 0.00 0.00 0.00 75 1007.6
20260904200442 21 0 0.0 0.0 0.00 0.00 0.00 76 1007.7
20260904194942 20 0 0.0 0.0 0.00 0.00 0.00 78 1007.9
20260904194442 20 0 0.0 0.0 0.00 0.00 0.00 78 1007.9
20260904193942 20 0 0.0 0.0 0.00 0.00 0.00 79 1008.1
20260904192942 20 0 0.0 0.0 0.00 0.00 0.00 80 1008.0
20260904192443 20 0 0.0 0.0 0.00 0.00 0.00 80 1008.0
20260904191942 20 0 0.0 0.0 0.00 0.00 0.00 81 1008.1
20260904191443 20 0 0.0 0.0 0.00 0.00 0.00 82 1008.2
20260904190942 20 0 0.0 0.0 0.00 0.00 0.00 82 1008.3
20260904190442 19 0 0.0 0.0 0.00 0.00 0.00 82 1008.3
20260904185942 19 0 0.0 0.0 0.00 0.00 0.00 84 1008.4
20260904185442 18 0 0.0 0.0 0.00 0.00 0.00 84 1008.5
20260904184942 18 0 0.0 0.0 0.00 0.00 0.00 84 1008.6
20260904184442 19 0 0.0 0.0 0.00 0.00 0.00 83 1008.7
20260904183942 19 0 0.0 0.0 0.00 0.00 0.00 83 1008.8
20260904183442 19 0 0.0 0.0 0.00 0.00 0.00 82 1008.9
20260904182943 19 0 0.0 0.0 0.00 0.00 0.00 82 1008.9
20260904182443 20 0 0.0 0.0 0.00 0.00 0.00 82 1009.0
20260904181943 20 0 0.0 0.0 0.00 0.00 0.00 82 1009.1
20260904181442 19 0 0.0 0.0 0.00 0.00 0.00 82 1009.1
20260904180443 19 0 0.0 0.0 0.00 0.00 0.00 82 1009.1
20260904175943 20 0 0.0 0.0 0.00 0.00 0.00 82 1009.1
20260904175442 20 0 0.0 0.0 0.00 0.00 0.00 81 1008.9
20260904174942 20 0 0.0 0.0 0.00 0.00 0.00 81 1008.9
20260904174442 20 0 0.0 0.0 0.00 0.00 0.00 80 1008.8
20260904173942 20 0 0.0 0.0 0.00 0.00 0.00 79 1008.8
20260904173442 20 0 0.0 0.0 0.00 0.00 0.00 79 1008.8
20260904172443 21 0 0.0 0.0 0.00 0.00 0.00 77 1008.6
20260904171942 21 0 0.0 0.0 0.00 0.00 0.00 77 1008.6
20260904171442 21 0 0.0 0.0 0.00 0.00 0.00 76 1008.6
20260904170942 21 0 0.0 0.0 0.00 0.00 0.00 76 1008.7
20260904170442 22 0 0.0 0.0 0.00 0.00 0.00 75 1008.7
20260904165443 22 0 0.0 0.0 0.00 0.00 0.00 73 1008.8
20260904164943 22 0 0.0 0.0 0.00 0.00 0.00 72 1008.8
20260904164443 23 0 0.0 0.0 0.00 0.00 0.00 72 1008.8
20260904163943 23 0 0.0 0.0 0.00 0.00 0.00 71 1008.8
20260904163443 23 0 0.0 0.0 0.00 0.00 0.00 71 1008.9
20260904162942 23 0 0.0 0.0 0.00 0.00 0.00 70 1009.0
20260904162442 23 0 0.0 0.0 0.00 0.00 0.00 69 1009.1
20260904161943 23 0 0.0 0.0 0.00 0.00 0.00 69 1009.1
20260904161443 23 0 0.0 0.0 0.00 0.00 0.00 69 1009.1
20260904160943 23 0 0.0 0.0 0.00 0.00 0.00 69 1009.2
20260904155945 23 0 0.0 0.0 0.00 0.00 0.00 69 1009.2
20260904155443 23 0 0.0 0.0 0.00 0.00 0.00 69 1009.4
20260904154943 24 0 0.0 0.0 0.00 0.00 0.00 69 1009.4
20260904154444 24 0 0.0 0.0 0.00 0.00 0.00 69 1009.4
20260904153942 24 0 0.0 0.0 0.00 0.00 0.00 67 1009.4
20260904153443 24 0 0.0 0.0 0.00 0.00 0.00 68 1009.6
20260904152943 25 0 0.0 0.0 0.00 0.00 0.00 67 1009.6
20260904152444 25 0 0.0 0.0 0.00 0.00 0.00 68 1009.6
20260904151943 25 0 0.0 0.0 0.00 0.00 0.00 67 1009.7
20260904151443 25 0 0.0 0.0 0.00 0.00 0.00 67 1009.9
20260904150943 24 0 0.0 0.0 0.00 0.00 0.00 69 1010.0
20260904150443 24 0 0.0 0.0 0.00 0.00 0.00 69 1010.1
20260904145943 24 0 0.0 0.0 0.00 0.00 0.00 69 1010.1
20260904145443 24 0 0.0 0.0 0.00 0.00 0.00 68 1010.2
20260904144444 24 0 0.0 0.0 0.00 0.00 0.00 69 1010.3
20260904143443 23 0 0.0 0.0 0.00 0.00 0.00 68 1010.5
20260904142945 23 0 0.0 0.0 0.00 0.00 0.00 70 1010.5
20260904141943 23 0 0.0 0.0 0.00 0.00 0.00 70 1010.7
20260904141444 23 0 0.0 0.0 0.00 0.00 0.00 70 1010.7
20260904140443 23 0 0.0 0.0 0.00 0.00 0.00 71 1010.8
20260904135443 25 0 0.0 0.0 0.00 0.00 0.00 69 1010.7
20260904134943 25 0 0.0 0.0 0.00 0.00 0.00 69 1010.9
20260904134444 25 0 0.0 0.0 0.00 0.00 0.00 67 1011.0
20260904133944 25 0 0.0 0.0 0.00 0.00 0.00 70 1010.9
20260904133444 24 0 0.0 0.0 0.00 0.00 0.00 68 1011.2
20260904132944 24 0 0.0 0.0 0.00 0.00 0.00 68 1011.1
20260904131944 24 0 0.0 0.0 0.00 0.00 0.00 67 1011.2
20260904130943 25 0 0.0 0.0 0.00 0.00 0.00 69 1011.4
20260904130443 24 0 0.0 0.0 0.00 0.00 0.00 71 1011.5
20260904125444 23 0 0.0 0.0 0.00 0.00 0.00 72 1011.6
20260904124944 23 0 0.0 0.0 0.00 0.00 0.00 72 1011.5
20260904124444 23 0 0.0 0.0 0.00 0.00 0.00 72 1011.7
20260904123944 23 0 0.0 0.0 0.00 0.00 0.00 71 1011.8
20260904122944 23 0 0.0 0.0 0.00 0.00 0.00 72 1012.0
20260904121944 23 0 0.0 0.0 0.00 0.00 0.00 70 1012.1
20260904121444 23 0 0.0 0.0 0.00 0.00 0.00 71 1012.2
20260904120944 23 0 0.0 0.0 0.00 0.00 0.00 72 1012.2
20260904120444 23 0 0.0 0.0 0.00 0.00 0.00 71 1012.3
20260904115944 23 0 0.0 0.0 0.00 0.00 0.00 71 1012.4
20260904115443 23 0 0.0 0.0 0.00 0.00 0.00 69 1012.5
20260904114943 23 0 0.0 0.0 0.00 0.00 0.00 71 1012.7
20260904114443 22 0 0.0 0.0 0.00 0.00 0.00 72 1012.6
20260904113943 22 0 0.0 0.0 0.00 0.00 0.00 71 1012.7
20260904113443 23 0 0.0 0.0 0.00 0.00 0.00 69 1012.9
20260904112946 23 0 0.0 0.0 0.00 0.00 0.00 67 1012.8
20260904112444 24 0 0.0 0.0 0.00 0.00 0.00 65 1012.9
20260904111943 24 0 0.0 0.0 0.00 0.00 0.00 66 1013.1
20260904111444 23 0 0.0 0.0 0.00 0.00 0.00 66 1013.1
20260904110443 23 0 0.0 0.0 0.00 0.00 0.00 68 1013.1
20260904105444 24 0 0.0 0.0 0.00 0.00 0.00 66 1013.3
20260904104944 23 0 0.0 0.0 0.00 0.00 0.00 67 1013.2
20260904104443 23 0 0.0 0.0 0.00 0.00 0.00 68 1013.2
20260904103944 23 0 0.0 0.0 0.00 0.00 0.00 70 1013.4
20260904103444 22 0 0.0 0.0 0.00 0.00 0.00 73 1013.4
20260904102944 22 0 0.0 0.0 0.00 0.00 0.00 72 1013.5
20260904102443 22 0 0.0 0.0 0.00 0.00 0.00 72 1013.5
20260904101944 22 0 0.0 0.0 0.00 0.00 0.00 72 1013.7
20260904101443 21 0 0.0 0.0 0.00 0.00 0.00 72 1013.8
20260904100944 21 0 0.0 0.0 0.00 0.00 0.00 72 1013.8
20260904100444 21 0 0.0 0.0 0.00 0.00 0.00 73 1013.8
20260904095944 21 0 0.0 0.0 0.00 0.00 0.00 72 1013.8
20260904095444 21 0 0.0 0.0 0.00 0.00 0.00 72 1013.9
20260904094944 21 0 0.0 0.0 0.00 0.00 0.00 72 1014.0
20260904094444 22 0 0.0 0.0 0.00 0.00 0.00 71 1014.1
20260904093943 22 0 0.0 0.0 0.00 0.00 0.00 69 1014.2
20260904093444 22 0 0.0 0.0 0.00 0.00 0.00 71 1014.2
20260904092944 22 0 0.0 0.0 0.00 0.00 0.00 74 1014.2
20260904092444 22 0 0.0 0.0 0.00 0.00 0.00 73 1014.3
20260904091944 21 0 0.0 0.0 0.00 0.00 0.00 73 1014.4
20260904091444 21 0 0.0 0.0 0.00 0.00 0.00 73 1014.4
20260904090944 21 0 0.0 0.0 0.00 0.00 0.00 73 1014.6
20260904090444 21 0 0.0 0.0 0.00 0.00 0.00 73 1014.6
20260904085444 21 0 0.0 0.0 0.00 0.00 0.00 74 1014.5
20260904084944 21 0 0.0 0.0 0.00 0.00 0.00 75 1014.5
20260904084444 21 0 0.0 0.0 0.00 0.00 0.00 76 1014.6
20260904083945 21 0 0.0 0.0 0.00 0.00 0.00 75 1014.7
20260904083445 21 0 0.0 0.0 0.00 0.00 0.00 75 1014.7
20260904082944 21 0 0.0 0.0 0.00 0.00 0.00 75 1014.7
20260904081946 20 0 0.0 0.0 0.00 0.00 0.00 76 1015.0
20260904081445 21 0 0.0 0.0 0.00 0.00 0.00 75 1015.0
20260904080944 21 0 0.0 0.0 0.00 0.00 0.00 76 1015.1
20260904080444 21 0 0.0 0.0 0.00 0.00 0.00 75 1014.9
20260904075944 20 0 0.0 0.0 0.00 0.00 0.00 77 1014.9
20260904075444 20 0 0.0 0.0 0.00 0.00 0.00 79 1015.0
20260904074944 19 0 0.0 0.0 0.00 0.00 0.00 80 1015.0
20260904074445 19 0 0.0 0.0 0.00 0.00 0.00 79 1015.1